User: anonymous
Location: Stigler
(35.2540°N, 95.1230°W)
Time: 07:21:49
(UTC-05:00)
Language:

Cosmos 1805 - Orbit

View from above orbital plane
View from above orbital plane
View from above satellite
View from above satellite

Ground track
Ground track

The orbit data is extracted from the following two-line orbital elements,

1 17191U 86097A   14209.11622870  .00002539  00000-0  16506-3 0  9486
2 17191 082.5004 345.6406 0011803 069.1205 291.1285 15.07538457504398
Epoch (UTC): 28 July 2014 02:47:22
Eccentricity: 0.0011803
inclination: 82.5004°
perigee height: 535 km
apogee height: 552 km
right ascension of ascending node: 345.6406°
argument of perigee: 69.1205°
revolutions per day: 15.07538457
mean anomaly at epoch: 291.1285°
orbit number at epoch: 50439

The dashed part of the orbit path shows where the satellite is in the earth's shadow,  

DLR